DW9633 Weather Reports


time (UTC)temp
C
wind
direction
speed
KPH
gust
KPH
rain 1hr
cm
rain 24hr
cm
rain mn
cm
humidity
%
barometer
mb
20260507023011 13 135 0.0 8.0 0.00 0.00 0.00 66 1015.2
20260507021510 13 124 0.0 4.8 0.00 0.00 0.00 65 1015.1
20260507020012 13 99 0.0 8.0 0.00 0.00 0.00 65 1015.2
20260507014512 13 97 3.2 11.3 0.00 0.00 0.00 65 1015.1
20260507013011 14 115 1.6 9.7 0.00 0.00 0.00 64 1015.3
20260507011509 15 96 0.0 16.1 0.00 0.00 0.00 62 1015.0
20260507010008 15 144 0.0 11.3 0.00 0.00 0.00 60 1014.8
20260507004506 16 108 0.0 11.3 0.00 0.00 0.00 58 1014.4
20260507003005 16 129 1.6 14.5 0.00 0.00 0.00 55 1014.2
20260507001510 17 116 1.6 16.1 0.00 0.00 0.00 53 1013.9
20260507000009 17 112 1.6 14.5 0.00 0.00 0.00 50 1013.7
20260506234508 18 47 0.0 17.7 0.00 0.00 0.00 51 1013.4
20260506233009 18 141 1.6 16.1 0.00 0.00 0.00 47 1013.3
20260506231509 18 120 1.6 12.9 0.00 0.00 0.00 45 1013.3
20260506230002 19 134 0.0 8.0 0.00 0.00 0.00 43 1013.1
20260506224502 20 72 1.6 11.3 0.00 0.00 0.00 41 1013.0
20260506223001 20 120 1.6 11.3 0.00 0.00 0.00 41 1013.1
20260506221601 20 173 3.2 11.3 0.00 0.00 0.00 40 1013.2
20260506220002 20 128 1.6 11.3 0.00 0.00 0.00 40 1013.1
20260506214502 20 96 1.6 11.3 0.00 0.00 0.00 41 1013.6
20260506213100 21 117 1.6 6.4 0.00 0.00 0.00 43 1013.4
20260506211559 20 119 1.6 6.4 0.00 0.00 0.00 44 1013.5
20260506210057 20 99 3.2 12.9 0.00 0.00 0.00 46 1013.6
20260506204558 20 121 0.0 6.4 0.00 0.00 0.00 47 1013.7
20260506203056 19 98 0.0 9.7 0.00 0.00 0.00 50 1013.9
20260506201617 19 109 1.6 9.7 0.00 0.00 0.00 49 1013.6
20260506200053 20 121 3.2 9.7 0.00 0.00 0.00 46 1013.3
20260506194555 21 141 1.6 12.9 0.00 0.00 0.00 46 1013.1
20260506193054 21 101 1.6 11.3 0.00 0.00 0.00 46 1012.8
20260506191551 21 123 0.0 8.0 0.00 0.00 0.00 48 1012.8
20260506190056 21 187 1.6 6.4 0.00 0.00 0.00 48 1013.1
20260506184558 21 125 0.0 8.0 0.00 0.00 0.00 48 1013.3
20260506183054 20 135 1.6 9.7 0.00 0.00 0.00 49 1013.4
20260506181551 20 186 3.2 12.9 0.00 0.00 0.00 46 1013.5
20260506180044 19 120 0.0 6.4 0.00 0.00 0.00 48 1013.5
20260506174540 18 124 0.0 3.2 0.00 0.00 0.00 56 1013.4
20260506173046 18 124 0.0 6.4 0.00 0.00 0.00 56 1013.5
20260506171544 17 125 0.0 4.8 0.00 0.00 0.00 58 1013.4
20260506170035 17 130 0.0 4.8 0.00 0.00 0.00 60 1013.6
20260506164532 16 103 0.0 6.4 0.00 0.00 0.00 61 1013.8
20260506163038 15 110 0.0 8.0 0.00 0.00 0.00 64 1013.8
20260506161526 15 143 0.0 9.7 0.00 0.00 0.00 65 1013.9
20260506160018 14 118 0.0 4.8 0.00 0.00 0.00 67 1013.9
20260506154519 14 110 0.0 6.4 0.00 0.00 0.00 68 1013.6
20260506153012 13 122 0.0 4.8 0.00 0.00 0.00 70 1013.8
20260506151507 13 130 0.0 4.8 0.00 0.00 0.00 72 1014.0
20260506150007 12 141 0.0 6.4 0.00 0.00 0.00 73 1014.3
20260506144503 12 120 0.0 4.8 0.00 0.00 0.00 74 1014.4
20260506143100 -17 0.0 0.0 0.00 0.00 0.00 1014.5
20260506141558 -17 0.0 0.0 0.00 0.00 0.00 1014.6
20260506140101 -17 0.0 0.0 0.00 0.00 0.00 1014.7
20260506134550 -17 0.0 0.0 0.00 0.00 0.00 1014.7
20260506133046 -17 0.0 0.0 0.00 0.00 0.00 1014.7
20260506131542 -17 0.0 0.0 0.00 0.00 0.00 1014.6
20260506130041 -17 0.0 0.0 0.00 0.00 0.00 1014.7
20260506124539 11 128 0.0 1.6 0.00 0.00 0.00 80 1014.5
20260506123037 11 119 0.0 1.6 0.00 0.00 0.00 79 1014.4
20260506121535 11 127 0.0 1.6 0.00 0.00 0.00 80 1014.2
20260506120035 11 130 0.0 1.6 0.00 0.00 0.00 80 1014.1
20260506114533 11 134 0.0 1.6 0.00 0.00 0.00 79 1014.0
20260506113033 11 129 0.0 1.6 0.00 0.00 0.00 79 1013.9
20260506111533 11 124 0.0 1.6 0.00 0.00 0.00 78 1013.9
20260506110025 11 129 0.0 1.6 0.00 0.00 0.00 78 1013.6
20260506104521 12 128 0.0 1.6 0.00 0.00 0.00 77 1013.5
20260506103022 12 128 0.0 3.2 0.00 0.00 0.00 76 1013.3
20260506101522 12 131 0.0 1.6 0.00 0.00 0.00 76 1013.2
20260506100020 12 145 0.0 1.6 0.00 0.00 0.00 75 1013.2
20260506094520 12 132 0.0 4.8 0.00 0.00 0.00 74 1013.3
20260506093032 12 129 0.0 1.6 0.00 0.00 0.00 73 1013.2
20260506091517 12 113 0.0 3.2 0.00 0.00 0.00 72 1013.2
20260506090015 12 126 0.0 3.2 0.00 0.00 0.00 72 1013.2
20260506084517 12 124 0.0 4.8 0.00 0.00 0.00 71 1013.3
20260506083012 13 139 0.0 4.8 0.00 0.00 0.00 71 1013.2
20260506081511 13 119 0.0 3.2 0.00 0.00 0.00 71 1013.1
20260506073010 13 106 0.0 4.8 0.00 0.00 0.00 70 1012.8
20260506071508 13 115 0.0 12.9 0.00 0.00 0.00 70 1012.7
20260506061603 15 134 0.0 4.8 0.00 0.00 0.00 66 1012.3
20260506044605 16 122 0.0 9.7 0.00 0.00 0.00 62 1012.0
20260506043055 16 103 0.0 1.6 0.00 0.00 0.00 60 1011.8
20260506041606 17 107 0.0 6.4 0.00 0.00 0.00 58 1011.7
20260506040055 17 91 0.0 1.6 0.00 0.00 0.00 56 1011.4
20260506034550 17 120 0.0 1.6 0.00 0.00 0.00 56 1011.2
20260506033055 18 120 0.0 1.6 0.00 0.00 0.00 55 1011.0
20260506031551 19 125 0.0 6.4 0.00 0.00 0.00 53 1010.8
20260506030050 20 113 0.0 1.6 0.00 0.00 0.00 51 1010.5
20260506024551 20 139 0.0 4.8 0.00 0.00 0.00 49 1010.3